CZ-4 DEB

Satellite information

Favourite Embed

Satellite Type and Status

DEBRISIN ORBIT

Key statistics

Satellite CZ-4 DEB at a glance.

Uptime

12886

Days in orbit

Revolutions

≈ 14.5

Per day

Orbit

SSO

Sun Synchronous Orbit

Inclination

98.4

Latest

Satellite identification and parameters

Extended collection of information and parameters for CZ-4 DEB.

Object identification

Identified? True

Debris? True

Object name: CZ-4 DEB

International designator: 1990-081CB

Object number (NORAD): 20969

Object ID (CCSDS): 20969

Country: PEOPLES REPUBLIC OF CHINA (PRC)

Current information (Y/N): Y

RCS size: MEDIUM

Orbital parameters

Period: 99.467 minutes

Inclination: 98.429 deg

SMA: 7111.261 km

Apoapsis: 761.415 km

Periapsis: 704.836 km

RAAN: 353.201 deg

Eccentricy: 0.00397811

Argument of periapsis: 192.8976 deg

Mean anomaly: 278.4304 deg

Mean motion: 14.47714286 rev/day

Mean motion (dot): 0.00004328 rev/day2

B* drag term: 0.001172528 1/REarth

Two-line elements (TLE)

Creation date: Dec. 14, 2025, 3:07 a.m.

Reference frame: TEME

Reference center: EARTH

Epoch: Dec. 13, 2025, 3:58 p.m. UTC

TLE line 0: 0 CZ-4 DEB

TLE line 1: 1 20969U 90081CB 25347.66575395 .00004328 00000-0 11725-2 0 9996

TLE line 2: 2 20969 98.4290 353.2010 0039781 192.8976 278.4304 14.47714286830052

Live tracking on map

Real-time ground track for satellite CZ-4 DEB.

In-orbit conjunctions

There are no conjunctions computed for CZ-4 DEB, at the moment. Check back to stay up to date, as we update our databases every day.

Go to all conjunctions

Associated space launch

Chinese polar orbiting meteorological satellite

CZ-4 DEB was lifted into orbit during the mission ‘Long March 4A | Feng Yun 1B’, on board a Long March 4A space rocket.

The launch took place on Sept. 3, 1990, 12:53 a.m. from Launch Complex 7.

For more information about the launch, click the button.

Launch to space Long March 4A | Feng Yun 1B
Long March 4A | Feng Yun 1B

Agency: N/A

Status: Launch Successful

Launch date: Sept. 3, 1990, 12:53 a.m. UTC

Rocket: Long March 4A

Launch pad: Launch Complex 7

Location: Taiyuan Satellite Launch Center, People's Republic of China

...

Latest news about this satellite

There are no fresh news available about this satellite. Check back as we update our databases every day.


Newsletter sign-up

Weekly statistics, charts and insights to help you stay on top of the space industry.